Weather at Big Bear City Airport

Public forecast

Using degrees Fahrenheit for public forecast. Weather courtesy of forecast.io.

Current aviation weather report (METAR) for Big Bear City Airport

Retrieved UTC (0 seconds ago):

Closest aviation forecast (TAF) to Big Bear City Airport

Closest forecast is San Bernardino International Airport, 21.4 nm (39.6 km) WSW. Retrieved 2021/07/23 12:24 UTC (3 hours ago):

TAF KSBD 231121Z 2312/2412 26007KT P6SM SCT200 FM232000 26010G18KT P6SM SCT150 FM240400 26006KT P6SM SKC